Waukegan, IL

2:07 PM CST on December 08, 2016 (GMT -0600)
Waukegan Regional

Weather History for KUGN - November, 2013

Change the Weather History Date:

Sunday, November 24, 2013

  Actual Average Record
Temperature  
Mean Temperature 17 °F -  
Max Temperature 26 °F 42 °F 62 °F (2001)
Min Temperature 8 °F 28 °F 8 °F (2013)
Degree Days  
Heating Degree Days 48 30  
Month to date heating degree days 633 588  
Since 1 July heating degree days 1273 1194  
Cooling Degree Days 0 0  
Month to date cooling degree days 0 0  
Year to date cooling degree days 590 564  
Moisture  
Dew Point 3 °F    
Average Humidity 58    
Maximum Humidity 80    
Minimum Humidity 36    
Precipitation  
Precipitation 0.00 in 0.07 in 0.72 in (2009)
Month to date precipitation 1.94 2.26  
Year to date precipitation 28.18 33.09  
Sea Level Pressure  
Sea Level Pressure 30.61 in    
Wind  
Wind Speed 10 mph (WSW)    
Max Wind Speed 25 mph    
Max Gust Speed 32 mph    
Visibility 10 miles    
Events      
T = Trace of Precipitation, MM = Missing Value Source: NWS Daily Summary

Daily Weather History Graph

Daily Weather History Graph

Search for Another Location

Airport or City:

Trip Planner

Search our weather history database for the weather conditions in past years. The results will help you decide how hot, cold, wet, or windy it might be!

Date:

Astronomy

Nov. 24, 2013 Rise Set
Actual Time 6:53 AM CST 4:22 PM CST
Civil Twilight 6:22 AM CST 4:53 PM CST
Nautical Twilight 5:48 AM CST 5:28 PM CST
Astronomical Twilight 5:14 AM CST 6:01 PM CST
Moon 10:52 PM CST (11/24) 11:37 AM CST (11/24)
Length of Visible Light 10h 30m
Length of Day
9h 28m
Waning Gibbous, 60% of the Moon is Illuminated
Nov 24
Waning Gibbous
Nov 25
Last Quarter
Dec 2
New
Dec 9
First Quarter
Dec 17
Full

Hourly Weather History & Observations

Time (CST) Temp. Windchill Dew Point Humidity Pressure Visibility Wind Dir Wind Speed Gust Speed Precip Events Conditions
12:52 AM 10.9 °F 1.4 °F 1.9 °F 67% 30.72 in 10.0 mi WNW 5.8 mph - N/A   Clear
1:52 AM 10.9 °F -0.8 °F 1.9 °F 67% 30.72 in 10.0 mi WNW 8.1 mph - N/A   Clear
2:52 AM 10.9 °F 2.9 °F 1.9 °F 67% 30.73 in 10.0 mi West 4.6 mph - N/A   Clear
3:52 AM 10.0 °F -0.9 °F 1.9 °F 70% 30.72 in 10.0 mi WNW 6.9 mph - N/A   Clear
4:52 AM 9.0 °F -0.9 °F 1.9 °F 73% 30.71 in 10.0 mi WNW 5.8 mph - N/A   Clear
5:52 AM 8.1 °F - 3.0 °F 80% 30.71 in 10.0 mi Calm Calm - N/A   Clear
6:52 AM 9.0 °F - 3.0 °F 77% 30.73 in 10.0 mi Calm Calm - N/A   Clear
7:52 AM 12.0 °F 5.9 °F 3.9 °F 70% 30.75 in 10.0 mi Variable 3.5 mph - N/A   Clear
8:52 AM 15.1 °F 6.4 °F 3.9 °F 61% 30.75 in 10.0 mi Variable 5.8 mph - N/A   Clear
9:52 AM 18.0 °F 7.7 °F 3.0 °F 52% 30.74 in 10.0 mi West 8.1 mph - N/A   Clear
10:52 AM 19.9 °F 10.1 °F 1.9 °F 46% 30.72 in 10.0 mi West 8.1 mph - N/A   Clear
11:52 AM 21.9 °F 11.7 °F 1.0 °F 40% 30.66 in 10.0 mi SW 9.2 mph - N/A   Clear
12:52 PM 23.0 °F 13.9 °F 1.0 °F 39% 30.62 in 10.0 mi SSW 8.1 mph - N/A   Clear
1:52 PM 25.0 °F 17.1 °F 1.0 °F 36% 30.60 in 10.0 mi Variable 6.9 mph 16.1 mph N/A   Clear
2:52 PM 25.0 °F 13.1 °F 1.9 °F 37% 30.57 in 10.0 mi SSW 13.8 mph 17.3 mph N/A   Clear
3:52 PM 24.1 °F 12.0 °F 1.0 °F 37% 30.56 in 10.0 mi SSW 13.8 mph 17.3 mph N/A   Clear
4:52 PM 21.9 °F 11.7 °F 3.9 °F 46% 30.53 in 10.0 mi SSW 9.2 mph - N/A   Clear
5:52 PM 21.9 °F 11.0 °F 6.1 °F 51% 30.53 in 10.0 mi SSW 10.4 mph - N/A   Clear
6:52 PM 21.0 °F 8.1 °F 5.0 °F 50% 30.51 in 10.0 mi SSW 13.8 mph - N/A   Clear
7:52 PM 21.0 °F 7.1 °F 5.0 °F 50% 30.47 in 10.0 mi SSW 16.1 mph - N/A   Clear
8:52 PM 21.0 °F 7.1 °F 6.1 °F 53% 30.44 in 10.0 mi SSW 16.1 mph - N/A   Clear
9:52 PM 21.9 °F 6.9 °F 5.0 °F 48% 30.41 in 10.0 mi SSW 19.6 mph - N/A   Clear
10:52 PM 21.9 °F 7.3 °F 5.0 °F 48% 30.38 in 10.0 mi SSW 18.4 mph - N/A   Clear
11:52 PM 21.9 °F 6.5 °F 6.1 °F 51% 30.35 in 10.0 mi SSW 20.7 mph 31.1 mph N/A   Clear